Wind_Speed
13 13 13 13 13 14 14 14 15 15 15 15 15 15 16 17 17 18 18 18 17 16 15 14 13 13 13 13 13 13 13 13 13 13 12 11 11 11 11 11 11 11
14 14 13 13 13 13 14 14 15 15 15 16 16 16 15 16 17 18 18 19 18 17 17 15 14 13 13 13 13 13 14 13 13 13 12 12 12 12 12 12 12 12
14 14 14 14 13 13 13 13 14 15 15 16 16 16 16 16 16 17 18 18 19 19 18 17 16 15 15 15 15 15 15 14 14 14 14 14 14 13 13 13 13 13
15 15 14 14 14 14 13 13 13 14 15 15 16 16 17 17 17 17 17 17 18 18 18 18 18 17 17 16 16 16 15 15 15 15 14 14 13 13 13 13 13 13
17 16 16 15 14 15 14 13 13 13 14 14 15 16 17 17 17 17 17 17 17 18 18 18 18 18 17 16 16 15 15 15 15 14 14 13 13 13 13 13 13 13
17 17 17 16 15 15 15 15 15 14 14 14 15 16 16 16 17 17 17 17 17 18 18 18 18 18 17 16 15 15 15 15 15 14 13 14 13 13 13 13 13 13
18 17 17 17 17 17 16 16 16 16 15 15 15 15 15 15 16 16 17 17 18 18 17 17 17 17 17 16 15 15 15 15 15 14 14 14 13 13 13 13 13 13
19 19 18 18 18 18 17 17 17 16 16 16 15 15 14 14 15 16 16 17 18 18 17 17 17 17 17 16 16 15 15 15 15 14 14 13 13 13 13 13 13 12
20 20 19 19 19 19 18 18 17 17 16 16 16 16 16 16 16 16 16 16 17 17 16 16 17 17 17 16 16 15 15 15 15 15 14 13 13 12 12 12 12 12
20 20 20 20 20 20 19 18 17 17 17 17 17 16 17 17 17 17 17 17 16 16 16 15 16 16 16 16 15 15 15 15 16 15 14 13 12 12 12 13 12 12
20 20 21 21 21 21 20 19 18 18 18 18 18 17 17 17 18 18 17 17 17 17 16 16 16 16 16 16 15 15 15 16 16 16 14 13 13 12 12 13 13 13
20 21 21 21 21 21 21 20 20 20 19 18 18 18 18 17 17 17 17 17 17 17 17 17 17 17 18 17 17 16 16 16 16 15 14 14 14 13 13 13 14 14
20 20 21 21 22 22 22 22 21 21 20 20 19 19 18 18 17 17 17 17 18 18 18 18 18 18 18 18 18 18 17 17 16 16 15 15 15 15 15 15 15 15
20 20 20 21 22 23 23 23 23 23 22 21 21 20 19 19 18 18 18 18 18 19 19 19 19 19 19 19 19 19 18 17 17 17 16 16 16 16 16 16 16 16
21 21 20 21 22 23 24 24 24 24 23 23 23 22 21 20 20 19 19 19 20 20 20 20 20 20 20 20 20 20 19 19 18 18 17 17 17 17 17 18 17 17
24 23 21 21 22 22 23 24 25 25 25 25 24 24 23 22 22 21 21 21 21 21 21 21 21 22 22 21 21 21 21 21 20 19 19 18 18 18 19 19 19 19
26 25 24 23 22 22 22 23 24 25 26 25 25 25 25 24 23 23 23 23 22 22 22 22 23 24 23 23 23 23 23 22 22 21 20 20 20 20 21 21 20 20
28 27 26 24 23 22 22 22 23 24 26 26 26 26 26 25 25 24 24 24 24 23 23 23 24 25 24 23 24 25 24 24 24 23 22 21 21 21 21 21 22 22
30 29 27 26 24 23 23 23 23 23 25 26 26 27 27 27 26 25 25 25 25 25 24 24 26 26 25 25 26 26 25 25 25 24 23 22 21 21 22 22 23 24
31 30 29 27 26 25 25 25 24 23 23 24 25 26 27 26 26 26 26 26 26 26 26 26 27 27 26 26 26 26 26 26 26 25 24 24 23 23 23 24 25 25
33 32 30 29 28 27 26 25 24 24 23 23 23 24 24 25 25 25 26 26 25 25 26 26 28 28 26 27 27 27 27 27 27 26 25 25 25 24 25 25 25 25
35 33 32 31 30 28 27 26 25 24 24 23 23 23 23 23 24 24 24 23 23 24 24 25 27 27 26 26 27 28 28 28 27 27 26 26 26 25 25 24 24 23
36 35 33 32 31 29 27 26 26 26 25 25 25 25 24 23 23 22 22 22 22 23 23 25 26 25 24 26 26 26 27 28 27 27 27 26 26 26 25 24 23 22
37 35 33 33 31 29 28 28 27 27 26 27 26 26 25 24 24 24 24 23 23 24 24 25 25 25 25 25 25 25 25 26 26 27 27 26 26 26 25 23 22 22
35 34 34 33 31 30 30 29 28 28 28 27 27 27 27 27 27 26 26 25 25 25 25 25 25 25 25 25 26 25 25 26 26 26 26 26 26 26 24 23 23 23
37 35 35 33 31 31 31 30 29 29 28 28 27 28 29 29 29 29 28 28 28 28 27 27 27 26 26 26 27 26 26 26 26 27 27 26 26 25 24 23 23 24
Wind_Direction
165 167 169 170 171 175 179 183 186 187 188 188 189 191 193 196 198 200 202 203 205 207 206 206 207 207 206 207 211 217 222 227 229 231 232 235 242 248 252 254 257 259
168 169 170 171 172 174 178 183 187 189 190 191 192 193 196 199 200 202 206 208 210 213 213 213 214 216 216 217 218 222 226 230 234 237 238 241 246 252 256 259 263 265
174 175 174 175 177 178 180 183 186 190 193 196 197 197 200 202 203 205 208 211 215 217 218 218 219 223 224 224 225 228 232 235 239 243 245 248 250 254 258 263 268 271
181 181 180 180 182 184 186 186 188 191 194 198 201 203 205 206 207 208 210 213 216 219 220 219 220 223 226 227 228 231 235 239 242 244 247 250 253 255 258 262 267 270
189 187 186 186 188 189 190 191 192 194 196 199 204 207 209 211 212 212 214 215 216 218 219 218 220 223 226 227 229 231 235 240 243 245 249 252 253 255 257 259 261 265
198 194 191 191 194 195 194 195 197 198 198 199 204 209 212 214 215 215 215 217 218 218 219 220 221 224 227 228 231 233 235 240 245 246 250 251 251 252 255 258 259 264
207 204 199 196 197 200 199 198 199 200 200 201 202 206 210 214 216 217 217 218 220 221 221 223 225 226 229 231 234 236 238 242 246 247 250 252 252 254 256 259 263 267
212 211 208 203 201 203 203 201 201 201 202 204 205 207 210 213 216 218 220 220 221 223 223 226 229 230 233 236 237 240 241 243 246 248 251 255 257 257 259 262 265 268
213 212 212 210 207 207 207 206 206 205 205 207 209 212 213 215 216 218 220 221 222 224 225 228 232 233 235 238 239 240 240 242 245 249 253 257 259 261 261 263 266 269
214 213 213 213 213 212 211 211 210 209 210 210 212 216 218 218 218 218 220 221 223 225 227 229 233 234 234 235 237 238 238 240 245 249 253 256 259 260 260 262 264 266
217 216 215 215 216 216 216 215 214 214 214 214 215 218 221 221 220 220 220 222 224 226 228 229 230 231 232 233 234 236 237 239 243 248 252 256 259 261 262 264 265 265
218 219 218 217 217 217 218 218 218 218 218 217 218 219 221 222 222 222 222 223 224 226 228 229 229 230 231 232 234 236 238 241 244 249 254 258 262 266 267 267 267 266
218 219 219 219 218 217 218 219 220 220 220 221 221 221 221 222 224 225 225 225 226 226 227 228 228 229 230 231 234 238 241 244 247 252 256 260 264 268 269 267 266 265
217 220 220 220 219 218 218 218 220 222 222 223 223 223 224 225 226 228 228 228 229 229 228 228 228 229 231 233 236 240 244 247 250 253 256 260 264 267 269 267 265 265
214 218 221 222 222 221 220 220 221 222 223 224 224 224 225 226 228 228 229 230 230 230 231 230 230 231 233 235 238 241 244 246 249 251 254 258 261 264 265 265 264 263
213 214 217 221 223 224 224 225 225 225 226 226 225 225 226 227 229 229 229 231 231 232 233 232 233 233 234 236 239 242 243 245 248 249 252 255 258 259 261 262 263 263
215 213 214 217 220 222 224 225 227 229 230 229 229 229 229 230 232 231 231 232 232 232 233 233 234 235 234 235 238 241 242 244 247 250 252 255 256 258 260 261 263 265
216 215 215 216 217 219 221 223 226 228 229 230 230 230 232 233 234 234 234 235 235 235 234 235 236 237 236 236 238 241 242 243 245 248 249 250 252 255 257 259 262 264
215 217 217 217 217 218 218 220 223 225 228 229 230 230 231 231 232 233 235 236 237 237 236 236 238 239 238 238 241 243 245 247 248 249 249 250 251 252 254 256 259 261
215 216 217 218 218 218 219 220 222 224 226 229 231 232 233 233 233 234 235 236 237 238 237 237 239 240 240 242 244 246 248 250 251 252 254 254 255 256 257 258 260 262
214 215 216 217 218 219 221 222 224 226 228 229 232 234 236 237 237 237 238 239 240 241 240 240 241 241 242 244 246 248 249 250 252 253 255 257 259 261 263 264 266 268
214 215 216 218 220 220 221 223 225 227 229 231 233 234 236 237 238 240 242 243 244 245 245 245 245 245 245 247 249 250 252 253 254 255 257 259 261 264 265 267 270 273
213 214 216 219 221 221 222 224 226 228 229 232 234 235 236 237 238 239 241 242 243 244 244 245 247 246 246 248 250 251 253 255 256 257 258 261 264 266 267 268 272 274
211 212 215 220 222 223 223 225 228 230 231 233 234 235 236 237 236 237 238 239 240 241 242 243 245 245 245 247 248 250 251 253 254 256 259 262 265 267 269 271 273 273
214 213 216 220 223 223 224 227 229 232 233 235 236 237 236 235 235 235 236 237 238 239 240 241 243 244 244 246 248 249 250 252 254 256 259 261 264 266 269 271 272 272
216 216 218 222 223 224 225 227 230 232 235 236 237 238 237 236 236 237 238 240 240 241 242 243 244 245 245 246 248 248 250 252 254 256 258 261 264 266 268 270 271 271
Height
3196 3198 3199 3200 3202 3203 3204 3206 3207 3208 3209 3211 3212 3213 3214 3215 3217 3218 3219 3220 3221 3223 3224 3225 3226 3227 3228 3228 3229 3230 3231 3232 3232 3233 3233 3234 3235 3235 3236 3236 3236 3237
3196 3197 3199 3200 3201 3203 3204 3205 3206 3208 3209 3210 3211 3212 3214 3215 3216 3217 3218 3219 3221 3222 3223 3224 3225 3226 3227 3228 3229 3229 3230 3231 3231 3232 3232 3233 3234 3234 3235 3235 3235 3236
3195 3197 3198 3200 3201 3202 3204 3205 3206 3207 3208 3209 3210 3212 3213 3214 3215 3216 3217 3219 3220 3221 3222 3223 3225 3225 3226 3227 3228 3229 3229 3230 3231 3231 3232 3232 3233 3233 3234 3234 3234 3234
3195 3196 3198 3199 3200 3202 3203 3204 3206 3207 3208 3209 3210 3211 3212 3213 3214 3215 3217 3218 3219 3220 3221 3222 3223 3224 3225 3226 3227 3228 3228 3229 3229 3230 3231 3231 3232 3232 3233 3233 3233 3233
3194 3195 3197 3198 3199 3201 3202 3203 3205 3206 3207 3208 3209 3210 3211 3212 3214 3215 3216 3217 3218 3219 3220 3221 3222 3223 3224 3225 3226 3227 3227 3228 3228 3229 3229 3230 3230 3231 3231 3232 3232 3232
3193 3194 3196 3197 3198 3200 3201 3202 3204 3205 3206 3207 3208 3209 3210 3211 3213 3214 3215 3216 3217 3218 3219 3220 3221 3222 3223 3224 3225 3225 3226 3226 3227 3228 3228 3229 3229 3230 3230 3230 3230 3230
3192 3193 3195 3196 3197 3199 3200 3201 3203 3204 3205 3206 3207 3208 3209 3210 3211 3212 3213 3214 3216 3217 3218 3219 3220 3221 3222 3223 3223 3224 3225 3225 3226 3227 3227 3227 3228 3228 3229 3229 3229 3229
3191 3192 3194 3195 3196 3198 3199 3200 3202 3203 3204 3205 3206 3207 3208 3209 3210 3211 3212 3213 3214 3216 3217 3218 3219 3220 3220 3221 3222 3223 3223 3224 3225 3225 3226 3226 3227 3227 3227 3228 3228 3228
3189 3191 3192 3194 3195 3196 3198 3199 3200 3201 3202 3204 3205 3206 3207 3208 3209 3210 3211 3212 3213 3214 3215 3216 3217 3218 3219 3220 3221 3221 3222 3223 3223 3224 3224 3225 3225 3226 3226 3226 3226 3227
3188 3189 3191 3192 3194 3195 3196 3198 3199 3200 3201 3202 3203 3204 3205 3206 3207 3209 3210 3211 3212 3213 3214 3215 3216 3217 3218 3218 3219 3220 3221 3221 3222 3222 3223 3223 3224 3224 3224 3224 3225 3225
3186 3187 3189 3190 3192 3193 3195 3196 3197 3198 3199 3200 3202 3203 3204 3205 3206 3207 3208 3210 3211 3212 3213 3214 3215 3215 3216 3217 3218 3218 3219 3220 3220 3221 3221 3222 3222 3222 3223 3223 3223 3223
3184 3186 3187 3188 3190 3191 3193 3194 3195 3197 3198 3199 3200 3201 3202 3203 3205 3206 3207 3208 3209 3210 3211 3212 3213 3214 3214 3215 3216 3217 3217 3218 3218 3219 3219 3220 3220 3220 3221 3221 3221 3221
3182 3184 3185 3186 3187 3189 3190 3192 3193 3195 3196 3197 3199 3200 3201 3202 3203 3204 3206 3207 3208 3208 3209 3210 3211 3212 3212 3213 3214 3215 3216 3216 3217 3217 3218 3218 3218 3218 3219 3219 3219 3220
3180 3182 3183 3184 3185 3186 3188 3189 3191 3192 3194 3195 3196 3198 3199 3200 3202 3203 3204 3205 3206 3207 3208 3208 3209 3210 3210 3211 3212 3213 3214 3215 3215 3215 3216 3216 3216 3217 3217 3217 3218 3218
3177 3179 3181 3182 3183 3184 3185 3187 3188 3190 3191 3193 3194 3196 3197 3198 3200 3201 3202 3203 3204 3205 3206 3206 3207 3208 3208 3209 3210 3211 3212 3212 3213 3213 3214 3214 3215 3215 3215 3215 3216 3216
3174 3176 3178 3180 3181 3182 3184 3185 3186 3188 3189 3190 3192 3193 3194 3196 3197 3198 3200 3200 3201 3203 3203 3204 3205 3206 3206 3207 3208 3209 3209 3210 3210 3211 3212 3212 3213 3213 3213 3213 3214 3214
3171 3172 3174 3176 3178 3180 3181 3183 3184 3186 3187 3188 3190 3191 3192 3194 3195 3196 3197 3198 3199 3200 3201 3202 3203 3203 3204 3205 3206 3206 3207 3208 3208 3209 3210 3211 3211 3211 3212 3212 3212 3212
3168 3170 3171 3173 3175 3177 3178 3180 3181 3183 3184 3185 3187 3188 3190 3191 3192 3194 3195 3196 3197 3198 3199 3200 3201 3201 3202 3203 3203 3204 3204 3205 3206 3207 3207 3208 3209 3209 3210 3210 3210 3210
3165 3167 3169 3170 3172 3174 3175 3177 3178 3179 3181 3182 3184 3185 3186 3188 3189 3191 3192 3193 3194 3196 3197 3198 3198 3198 3200 3201 3201 3202 3203 3203 3203 3204 3205 3206 3206 3207 3207 3207 3207 3207
3161 3163 3165 3167 3169 3171 3172 3174 3175 3177 3178 3180 3181 3182 3184 3185 3187 3188 3189 3190 3192 3193 3194 3195 3196 3197 3198 3199 3200 3200 3201 3201 3201 3202 3203 3204 3204 3205 3205 3205 3204 3204
3157 3159 3162 3164 3166 3167 3169 3171 3173 3174 3176 3177 3179 3180 3181 3183 3184 3185 3186 3188 3189 3190 3192 3193 3193 3194 3196 3197 3197 3197 3198 3198 3199 3199 3200 3201 3201 3202 3202 3202 3202 3203
3152 3155 3158 3160 3162 3164 3166 3168 3170 3172 3173 3174 3176 3177 3179 3180 3181 3183 3184 3186 3187 3188 3189 3190 3191 3192 3193 3194 3194 3195 3195 3195 3196 3197 3197 3198 3198 3198 3199 3199 3199 3200
3148 3151 3154 3156 3158 3161 3163 3165 3167 3168 3170 3171 3173 3174 3176 3177 3179 3180 3181 3183 3184 3185 3186 3187 3187 3189 3190 3190 3191 3192 3192 3192 3193 3193 3194 3195 3195 3195 3195 3196 3197 3197
3142 3146 3150 3152 3155 3158 3160 3162 3164 3165 3167 3168 3169 3171 3173 3174 3176 3177 3178 3179 3180 3181 3182 3183 3184 3185 3186 3187 3187 3188 3189 3189 3189 3190 3190 3191 3192 3192 3192 3193 3194 3194
3137 3142 3146 3149 3152 3155 3157 3159 3161 3162 3164 3165 3167 3168 3169 3170 3171 3173 3174 3175 3176 3177 3178 3180 3180 3181 3183 3183 3184 3185 3185 3186 3186 3186 3187 3188 3188 3189 3190 3190 3190 3190
3136 3140 3143 3146 3149 3152 3154 3156 3158 3159 3161 3162 3164 3165 3165 3166 3168 3169 3170 3172 3173 3174 3175 3176 3177 3178 3179 3180 3181 3181 3182 3182 3183 3183 3184 3184 3185 3186 3187 3187 3187 3187